Location: Blue Sky Observatory
(43.1153°N, 70.9036°W)
Time: 13:59:33
(UTC-04:00)

Amateur Radio Satellites - All Passes

Search period start: 28 April 2017 13:29
Search period end: 29 April 2017 13:29
Location: Blue Sky Observatory, 43.1153°N, 70.9036°W

Satellite Date Start Highest point End Downlink Frequencies (MHz)
Time Altitude Azimuth
ISS 28 Apr 13:30:16 13:33:28 50° 28° (NNE) 13:36:39 437.550
YUBILEINY 28 Apr 13:30:38 13:35:53 17° 58° (ENE) 13:41:08 435.215
ESTCUBE 1 28 Apr 13:33:06 13:36:20 19° 296° (WNW) 13:39:33 437.505/2401.250
VELOX 1 28 Apr 13:37:02 13:41:22 53° 288° (WNW) 13:45:38 145.980
BEESAT 3 28 Apr 13:42:24 13:46:20 85° 299° (WNW) 13:50:23 437.485
UKube-1 28 Apr 13:45:41 13:49:53 50° 100° (E) 13:54:04 .
BEESAT 2 28 Apr 13:45:56 13:49:36 39° 117° (ESE) 13:53:22 435.950
SO-50 28 Apr 13:50:55 13:54:49 28° 45° (NE) 13:58:43 436.795
AO-7 28 Apr 14:02:33 14:09:50 36° 57° (ENE) 14:17:07 .
DX 1 28 Apr 14:22:40 14:26:50 45° 289° (WNW) 14:30:58 434.975-435.025
AO-85 28 Apr 14:24:25 14:25:51 11° 324° (NW) 14:27:16 145.980
SPROUT 28 Apr 14:26:14 14:29:01 17° 296° (WNW) 14:31:49 437.525
ITUPSAT 1 28 Apr 14:29:10 14:31:12 12° 89° (E) 14:33:13 437.325
50 SAT 28 Apr 14:29:54 14:32:12 17° 293° (WNW) 14:34:30 437.505
Tancredo 1 28 Apr 14:30:41 14:33:33 34° 221° (SW) 14:36:23 437.200
ITAMSAT 1 28 Apr 14:31:37 14:36:24 39° 68° (ENE) 14:41:11 435.822/435.867
Oscar 19 28 Apr 14:42:38 14:46:02 18° 269° (W) 14:49:28 437.125/150
Gurwin Techsat 1B 28 Apr 14:59:11 15:03:12 22° 267° (W) 15:07:15 435.225
MOZHAYETS 4 28 Apr 15:00:36 15:02:48 13° 90° (E) 15:05:01
RS-15 28 Apr 15:05:43 15:17:47 55° 44° (NE) 15:29:18 29.354- 29.394
ISS 28 Apr 15:07:09 15:09:46 22° 225° (SW) 15:12:21 437.550
BEESAT 3 28 Apr 15:22:45 15:24:35 13° 323° (NW) 15:26:26 437.485
UKube-1 28 Apr 15:22:46 15:25:31 17° 297° (WNW) 15:28:15 .
BEESAT 28 Apr 15:22:51 15:27:27 44° 99° (E) 15:31:59 436.000
BEESAT 2 28 Apr 15:24:16 15:27:30 23° 316° (NW) 15:30:47 435.950
YUBILEINY 28 Apr 15:25:32 15:34:21 76° 81° (E) 15:43:09 435.215
SO-50 28 Apr 15:31:11 15:35:23 39° 243° (WSW) 15:39:33 436.795
AO-7 28 Apr 15:54:08 16:02:15 57° 257° (WSW) 16:10:25 .
ITUPSAT 1 28 Apr 16:04:45 16:09:32 73° 287° (WNW) 16:14:18 437.325
ITAMSAT 1 28 Apr 16:11:33 16:15:56 27° 265° (W) 16:20:20 435.822/435.867
KKS-1 28 Apr 16:34:00 16:37:22 21° 94° (E) 16:40:43 437.445
MOZHAYETS 4 28 Apr 16:35:48 16:40:23 65° 286° (WNW) 16:44:57
DOVE 4 28 Apr 16:43:14 16:47:25 24° 66° (ENE) 16:51:30 437.250
HO-68 28 Apr 16:56:29 16:56:55 10° 45° (NE) 16:57:22 435.675
STARS 28 Apr 17:00:17 17:03:11 17° 92° (E) 17:06:04 437.465
BEESAT 28 Apr 17:01:18 17:04:55 22° 296° (WNW) 17:08:31 436.000
XW-2D 28 Apr 17:06:12 17:08:47 18° 67° (ENE) 17:11:22 145.860 - 145.880
XW-2B 28 Apr 17:12:55 17:15:44 21° 68° (ENE) 17:18:34 145.730 - 145.750
KAITUO 1B 28 Apr 17:17:42 17:20:18 19° 67° (ENE) 17:22:56 145.475/437.950
RS-15 28 Apr 17:18:44 17:30:19 53° 249° (WSW) 17:41:23 29.354- 29.394
YUBILEINY 28 Apr 17:23:45 17:30:10 24° 281° (W) 17:36:38 435.215
XW-2C 28 Apr 17:24:28 17:27:40 28° 70° (ENE) 17:30:54 145.795 - 145.815
LilacSat-2 28 Apr 17:25:47 17:29:05 30° 70° (ENE) 17:32:25 437.200
CUBESAT XI-V 28 Apr 17:32:10 17:36:56 86° 101° (E) 17:41:38 437.345
CUTE-I 28 Apr 17:33:14 17:38:13 42° 69° (ENE) 17:43:13 437.470
XW-2F 28 Apr 17:47:54 17:51:30 51° 74° (ENE) 17:55:09 145.980 - 146.000
NUDT-PHONESAT 28 Apr 17:53:00 17:56:32 47° 73° (ENE) 18:00:05 437.300
KKS-1 28 Apr 18:09:56 18:14:03 38° 291° (WNW) 18:18:07 437.445
O/OREOS (USA 219) 28 Apr 18:16:30 18:18:34 13° 48° (NE) 18:20:37 437.305
DOVE 4 28 Apr 18:19:41 18:24:47 47° 262° (W) 18:29:48 437.250
STARS 28 Apr 18:35:35 18:39:45 45° 289° (WNW) 18:43:54 437.465
HO-68 28 Apr 18:36:10 18:42:56 48° 65° (ENE) 18:49:45 435.675
XW-2D 28 Apr 18:39:21 18:42:44 32° 263° (W) 18:46:09 145.860 - 145.880
CUBEBUG 2 28 Apr 18:45:37 18:48:22 17° 65° (ENE) 18:51:05 437.445
XW-2B 28 Apr 18:46:31 18:49:46 28° 264° (W) 18:53:02 145.730 - 145.750
KAITUO 1B 28 Apr 18:50:50 18:54:06 30° 263° (W) 18:57:25 145.475/437.950
CUTE 1.7 + AOD 2 28 Apr 18:52:16 18:56:12 39° 71° (ENE) 19:00:10 437.475
XW-2C 28 Apr 18:59:04 19:01:53 20° 266° (W) 19:04:43 145.795 - 145.815
STRAND 1 28 Apr 18:59:49 19:02:49 16° 90° (E) 19:05:48 437.568
LilacSat-2 28 Apr 19:00:43 19:03:25 19° 267° (W) 19:06:08 437.200
XW-2A 28 Apr 19:02:31 19:05:46 49° 74° (ENE) 19:09:01 145.665 - 145.685
NO-84 28 Apr 19:03:26 19:07:10 63° 137° (SE) 19:10:35 435.350 FM
SEEDS 28 Apr 19:08:09 19:12:01 38° 71° (ENE) 19:15:57 437.485
CUBESAT XI-V 28 Apr 19:11:53 19:13:34 12° 301° (WNW) 19:15:17 437.345
CUTE-I 28 Apr 19:13:57 19:18:24 26° 266° (W) 19:22:52 437.470
ZACube-1 28 Apr 19:19:13 19:21:13 13° 63° (ENE) 19:23:11 437.345
AO-73 28 Apr 19:24:39 19:26:45 14° 63° (ENE) 19:28:49 145.935
XW-2F 28 Apr 19:24:53 19:25:58 11° 270° (W) 19:27:02 145.980 - 146.000
NUDT-PHONESAT 28 Apr 19:29:28 19:30:43 11° 270° (W) 19:31:58 437.300
AO-85 28 Apr 19:31:17 19:33:43 15° 40° (NE) 19:36:11 145.980
Oscar 11 28 Apr 19:36:51 19:39:32 16° 64° (ENE) 19:42:13 .
O/OREOS (USA 219) 28 Apr 19:54:03 19:58:39 87° 252° (WSW) 20:03:12 437.305
UWE-3 28 Apr 20:02:27 20:06:39 66° 75° (ENE) 20:10:49 435.000/436.395/437.385
AAUSAT CUBESAT 2 28 Apr 20:09:05 20:13:14 89° 67° (ENE) 20:17:26 437.432
CUBEBUG 2 28 Apr 20:20:29 20:24:40 46° 261° (W) 20:28:46 437.445
BEESAT 3 28 Apr 20:22:29 20:24:00 12° 36° (NE) 20:25:30 437.485
HO-68 28 Apr 20:24:26 20:30:48 35° 264° (W) 20:37:15 435.675
CUTE 1.7 + AOD 2 28 Apr 20:29:14 20:32:11 18° 268° (W) 20:35:10 437.475
M-CUBED/EXP-1 PRIME 28 Apr 20:30:08 20:34:18 75° 107° (ESE) 20:38:06 437.505
DELFI C3 28 Apr 20:34:28 20:37:15 18° 66° (ENE) 20:40:02 145.870
STRAND 1 28 Apr 20:37:23 20:42:27 66° 287° (WNW) 20:47:30 437.568
NO-84 28 Apr 20:42:05 20:44:55 22° 333° (NNW) 20:47:35 435.350 FM
OBJECT BX 28 Apr 20:42:52 20:45:02 15° 66° (ENE) 20:47:13 145.990 - 145.960
SEEDS 28 Apr 20:44:53 20:47:51 19° 268° (W) 20:50:51 437.485
ZACube-1 28 Apr 20:52:54 20:57:01 59° 260° (W) 21:01:08 437.345
AO-73 28 Apr 20:58:26 21:02:31 56° 260° (W) 21:06:36 145.935
AO-85 28 Apr 21:10:33 21:14:30 68° 238° (WSW) 21:18:37 145.980
Oscar 11 28 Apr 21:11:06 21:15:16 50° 261° (W) 21:19:29 .
UNISAT 6 28 Apr 21:36:29 21:38:03 12° 90° (E) 21:39:37 437.425
LO-87 28 Apr 21:40:54 21:41:25 10° 63° (ENE) 21:41:55 145.935 - 145.965
UWE-3 28 Apr 21:42:28 21:43:32 11° 271° (W) 21:44:35 435.000/436.395/437.385
PRISM 28 Apr 21:55:53 21:59:31 29° 96° (E) 22:03:06 437.425
BEESAT 3 28 Apr 21:58:16 22:02:19 74° 55° (NE) 22:06:18 437.485
BEESAT 2 28 Apr 22:02:30 22:06:15 34° 49° (NE) 22:09:56 435.950
M-CUBED/EXP-1 PRIME 28 Apr 22:06:32 22:08:01 12° 307° (NW) 22:09:30 437.505
DELFI C3 28 Apr 22:08:03 22:11:46 37° 263° (W) 22:15:30 145.870
FO-29 28 Apr 22:09:13 22:13:23 23° 94° (E) 22:17:46 435.910
OBJECT BX 28 Apr 22:15:03 22:18:26 36° 262° (W) 22:21:49 145.990 - 145.960
NO-84 28 Apr 22:22:58 22:23:25 10° 355° (N) 22:23:52 435.350 FM
TIGRISAT 28 Apr 22:48:54 22:53:10 67° 101° (E) 22:57:30 435.000
ESTCUBE 1 28 Apr 22:55:38 22:59:57 47° 71° (ENE) 23:04:18 437.505/2401.250
VELOX 1 28 Apr 23:00:18 23:03:05 17° 63° (ENE) 23:05:52 145.980
LO-87 28 Apr 23:10:45 23:14:20 60° 259° (W) 23:17:57 145.935 - 145.965
UNISAT 6 28 Apr 23:10:54 23:15:10 64° 285° (WNW) 23:19:29 437.425
AIST 2D 28 Apr 23:15:24 23:17:44 17° 93° (E) 23:20:05 435.315
NANOSAT C BR1 28 Apr 23:23:28 23:24:27 11° 89° (E) 23:25:26 145.865
50 SAT 28 Apr 23:31:01 23:32:59 15° 65° (ENE) 23:34:58 437.505
PRISM 28 Apr 23:31:16 23:34:40 25° 293° (WNW) 23:38:02 437.425
BEESAT 3 28 Apr 23:38:30 23:39:17 10° 252° (WSW) 23:40:04 437.485
BEESAT 2 28 Apr 23:40:32 23:43:52 25° 246° (WSW) 23:47:10 435.950
SPROUT 28 Apr 23:43:24 23:47:22 38° 71° (ENE) 23:51:20 437.525
DX 1 28 Apr 23:44:05 23:47:04 18° 64° (ENE) 23:50:04 434.975-435.025
DUCHIFAT 1 28 Apr 23:50:08 23:53:13 20° 94° (E) 23:56:16 145.980
EO-79 28 Apr 23:50:43 23:54:10 24° 95° (E) 23:57:36 145.935-145.965
FO-29 28 Apr 23:53:45 23:58:41 45° 290° (WNW) 00:03:57 435.910
NO-84 29 Apr 00:00:25 00:02:06 14° 17° (NNE) 00:03:44 435.350 FM
TIGRISAT 29 Apr 00:27:29 00:29:21 13° 298° (WNW) 00:31:11 435.000
POLYITAN 1 29 Apr 00:30:11 00:34:23 68° 101° (ESE) 00:38:34 437.675
ESTCUBE 1 29 Apr 00:33:58 00:36:59 18° 268° (W) 00:40:03 437.505/2401.250
VELOX 1 29 Apr 00:34:44 00:39:05 54° 259° (W) 00:43:29 145.980
QB50P2 29 Apr 00:36:56 00:41:10 88° 112° (ESE) 00:45:22 145.880/145.840
UKube-1 29 Apr 00:40:43 00:44:52 47° 71° (ENE) 00:49:02 .
BUGSAT 1 29 Apr 00:42:02 00:45:14 22° 95° (E) 00:48:25 437.445
AIST 2D 29 Apr 00:47:54 00:51:01 29° 289° (WNW) 00:54:07 435.315
NANOSAT C BR1 29 Apr 00:56:27 01:00:36 67° 285° (WNW) 01:04:45 145.865
50 SAT 29 Apr 01:02:23 01:05:37 35° 262° (W) 01:08:52 437.505
Oscar 19 29 Apr 01:12:43 01:16:25 19° 92° (E) 01:20:06 437.125/150
DX 1 29 Apr 01:18:41 01:22:54 46° 260° (W) 01:27:09 434.975-435.025
SPROUT 29 Apr 01:20:20 01:23:24 19° 267° (W) 01:26:29 437.525
DUCHIFAT 1 29 Apr 01:25:09 01:28:58 36° 290° (WNW) 01:32:48 145.980
EO-79 29 Apr 01:26:17 01:29:55 29° 291° (WNW) 01:33:34 145.935-145.965
Gurwin Techsat 1B 29 Apr 01:34:01 01:37:38 18° 91° (E) 01:41:13 435.225
ITUPSAT 1 29 Apr 01:36:27 01:39:36 18° 62° (ENE) 01:42:45 437.325
NO-84 29 Apr 01:37:12 01:40:09 66° 39° (NE) 01:42:58 435.350 FM
PCSat 29 Apr 01:45:29 01:50:45 56° 115° (ESE) 01:56:04 145.827
MOZHAYETS 4 29 Apr 02:03:33 02:06:10 15° 62° (ENE) 02:08:46
POLYITAN 1 29 Apr 02:07:58 02:09:37 12° 298° (WNW) 02:11:16 437.675
BUGSAT 1 29 Apr 02:17:07 02:20:36 29° 291° (WNW) 02:24:04 437.445
UKube-1 29 Apr 02:18:25 02:21:08 16° 268° (W) 02:23:52 .
BEESAT 29 Apr 02:29:57 02:34:35 57° 72° (ENE) 02:39:16 436.000
YUBILEINY 29 Apr 02:35:28 02:40:27 17° 75° (ENE) 02:45:27 435.215
ITAMSAT 1 29 Apr 02:45:29 02:47:19 12° 88° (E) 02:49:09 435.822/435.867
Oscar 19 29 Apr 02:50:58 02:56:04 55° 289° (WNW) 03:01:07 437.125/150
CUBESAT XI-V 29 Apr 03:02:33 03:04:01 11° 59° (ENE) 03:05:30 437.345
ITUPSAT 1 29 Apr 03:12:20 03:16:59 56° 259° (W) 03:21:41 437.325
Gurwin Techsat 1B 29 Apr 03:12:43 03:17:58 60° 289° (WNW) 03:23:10 435.225
PCSat 29 Apr 03:30:00 03:34:29 26° 314° (NW) 03:39:01 145.827
KKS-1 29 Apr 03:32:54 03:36:26 23° 65° (ENE) 03:39:56 437.445
MOZHAYETS 4 29 Apr 03:38:19 03:42:48 61° 259° (W) 03:47:21
AO-7 29 Apr 03:54:21 04:02:19 47° 101° (E) 04:10:15 .
STARS 29 Apr 03:57:51 04:00:56 19° 64° (ENE) 04:04:00 437.465
BEESAT 29 Apr 04:09:51 04:12:44 16° 269° (W) 04:15:36 436.000
ITAMSAT 1 29 Apr 04:22:13 04:27:26 85° 285° (WNW) 04:32:36 435.822/435.867
YUBILEINY 29 Apr 04:27:09 04:35:50 84° 96° (E) 04:44:35 435.215
CUBESAT XI-V 29 Apr 04:35:59 04:40:38 88° 247° (WSW) 04:45:22 437.345
KKS-1 29 Apr 05:08:39 05:12:47 36° 262° (W) 05:16:56 437.445
RS-15 29 Apr 05:32:25 05:41:40 27° 101° (E) 05:51:05 29.354- 29.394
STARS 29 Apr 05:32:43 05:36:56 45° 260° (W) 05:41:11 437.465
M-CUBED/EXP-1 PRIME 29 Apr 05:43:48 05:46:23 15° 56° (NE) 05:48:57 437.505
SO-50 29 Apr 05:45:39 05:50:07 51° 119° (ESE) 05:54:34 436.795
AO-7 29 Apr 05:47:19 05:54:59 43° 300° (WNW) 06:02:40 .
CUTE-I 29 Apr 05:50:32 05:53:28 15° 90° (E) 05:56:24 437.470
ITAMSAT 1 29 Apr 06:04:00 06:06:06 12° 303° (WNW) 06:08:10 435.822/435.867
XW-2D 29 Apr 06:10:53 06:13:55 22° 95° (E) 06:16:57 145.860 - 145.880
STRAND 1 29 Apr 06:16:13 06:20:23 26° 65° (ENE) 06:24:32 437.568
XW-2B 29 Apr 06:17:44 06:20:58 26° 96° (E) 06:24:11 145.730 - 145.750
DOVE 4 29 Apr 06:18:03 06:22:25 44° 97° (E) 06:26:34 437.250
KAITUO 1B 29 Apr 06:20:57 06:23:59 22° 95° (E) 06:27:00 145.475/437.950
YUBILEINY 29 Apr 06:27:24 06:33:47 22° 298° (WNW) 06:40:13 435.215
XW-2C 29 Apr 06:29:33 06:33:06 36° 98° (E) 06:36:38 145.795 - 145.815
LilacSat-2 29 Apr 06:31:35 06:35:15 40° 98° (E) 06:38:54 437.200
XW-2F 29 Apr 06:52:48 06:56:36 68° 101° (ESE) 07:00:24 145.980 - 146.000
NUDT-PHONESAT 29 Apr 06:55:59 06:59:41 59° 100° (E) 07:03:22 437.300
Tancredo 1 29 Apr 07:04:52 07:07:39 31° 139° (SE) 07:10:27 437.200
M-CUBED/EXP-1 PRIME 29 Apr 07:15:33 07:20:12 78° 253° (WSW) 07:24:54 437.505
SO-50 29 Apr 07:27:07 07:30:50 24° 317° (NW) 07:34:31 436.795
CUTE-I 29 Apr 07:28:45 07:34:03 73° 287° (WNW) 07:39:20 437.470
RS-15 29 Apr 07:40:28 07:52:37 88° 305° (NW) 08:05:06 29.354- 29.394
AO-7 29 Apr 07:44:01 07:45:34 11° 322° (NW) 07:47:07 .
XW-2D 29 Apr 07:44:50 07:48:04 26° 291° (WNW) 07:51:18 145.860 - 145.880
ISS 29 Apr 07:46:56 07:50:10 64° 144° (SE) 07:53:24 437.550
HO-68 29 Apr 07:49:58 07:56:50 46° 99° (E) 08:03:41 435.675
AAUSAT CUBESAT 2 29 Apr 07:51:49 07:53:49 13° 90° (E) 07:55:48 437.432
XW-2B 29 Apr 07:52:00 07:55:03 23° 292° (WNW) 07:58:07 145.730 - 145.750
UWE-3 29 Apr 07:52:42 07:54:18 12° 90° (E) 07:55:54 435.000/436.395/437.385
STRAND 1 29 Apr 07:54:32 07:59:20 41° 262° (W) 08:04:10 437.568
KAITUO 1B 29 Apr 07:54:46 07:57:57 26° 291° (WNW) 08:01:07 145.475/437.950
XW-2A 29 Apr 07:55:53 07:59:08 45° 100° (E) 08:02:23 145.665 - 145.685
DOVE 4 29 Apr 07:56:34 07:59:44 19° 297° (WNW) 08:02:48 437.250
XW-2C 29 Apr 08:04:28 08:07:01 17° 294° (WNW) 08:09:34 145.795 - 145.815
LilacSat-2 29 Apr 08:06:49 08:09:13 16° 294° (WNW) 08:11:36 437.200
CUBEBUG 2 29 Apr 08:10:02 08:13:45 30° 96° (E) 08:17:29 437.445
CUTE 1.7 + AOD 2 29 Apr 08:11:20 08:15:39 71° 102° (ESE) 08:19:55 437.475
FO-29 29 Apr 08:25:33 08:27:58 13° 58° (ENE) 08:30:19 435.910
SEEDS 29 Apr 08:25:59 08:30:14 66° 100° (E) 08:34:28 437.485
XW-2F 29 Apr 08:29:53 08:30:11 10° 298° (WNW) 08:30:30 145.980 - 146.000
NUDT-PHONESAT 29 Apr 08:32:08 08:33:05 11° 297° (WNW) 08:34:02 437.300
UNISAT 6 29 Apr 08:36:34 08:38:29 13° 62° (ENE) 08:40:25 437.425
ZACube-1 29 Apr 08:40:15 08:43:40 23° 94° (E) 08:47:07 437.345
Tancredo 1 29 Apr 08:40:36 08:43:30 36° 336° (NNW) 08:46:24 437.200
AO-73 29 Apr 08:45:23 08:48:51 24° 95° (E) 08:52:21 145.935
PRISM 29 Apr 08:46:04 08:49:26 24° 67° (ENE) 08:52:50 437.425
PCSat 29 Apr 08:50:39 08:53:00 13° 34° (NNE) 08:55:21 145.827
Oscar 11 29 Apr 08:57:25 09:01:08 27° 95° (E) 09:04:50 .
CUTE-I 29 Apr 09:11:53 09:13:09 11° 305° (NW) 09:14:25 437.470
ISS 29 Apr 09:24:01 09:26:52 27° 342° (NNW) 09:29:42 437.550
AAUSAT CUBESAT 2 29 Apr 09:25:30 09:29:37 55° 286° (WNW) 09:33:42 437.432
UWE-3 29 Apr 09:26:58 09:31:07 62° 286° (WNW) 09:35:21 435.000/436.395/437.385
XW-2A 29 Apr 09:30:35 09:31:29 11° 296° (WNW) 09:32:23 145.665 - 145.685
HO-68 29 Apr 09:37:56 09:44:25 38° 297° (WNW) 09:50:54 435.675
OBJECT BX 29 Apr 09:43:29 09:45:52 16° 93° (E) 09:48:15 145.990 - 145.960
DELFI C3 29 Apr 09:44:12 09:47:30 24° 95° (E) 09:50:46 145.870
CUBEBUG 2 29 Apr 09:46:53 09:50:14 24° 292° (WNW) 09:53:38 437.445
TIGRISAT 29 Apr 09:48:14 09:52:33 65° 74° (ENE) 09:56:48 435.000
CUTE 1.7 + AOD 2 29 Apr 09:49:10 09:50:54 12° 298° (WNW) 09:52:37 437.475
RS-15 29 Apr 09:56:01 10:07:01 36° 331° (NNW) 10:18:10 29.354- 29.394
SEEDS 29 Apr 10:03:31 10:05:22 13° 298° (WNW) 10:07:14 437.485
FO-29 29 Apr 10:06:12 10:12:23 83° 75° (ENE) 10:17:56 435.910
O/OREOS (USA 219) 29 Apr 10:06:54 10:11:30 88° 294° (WNW) 10:16:09 437.305
UNISAT 6 29 Apr 10:10:21 10:14:41 67° 258° (WSW) 10:18:59 437.425
ZACube-1 29 Apr 10:16:13 10:19:58 32° 290° (WNW) 10:23:48 437.345
NANOSAT C BR1 29 Apr 10:17:36 10:18:02 10° 60° (ENE) 10:18:29 145.865
Tancredo 1 29 Apr 10:17:52 10:20:01 17° 355° (N) 10:22:10 437.200
PRISM 29 Apr 10:20:56 10:24:35 29° 263° (W) 10:28:17 437.425
AO-73 29 Apr 10:21:21 10:25:05 31° 290° (WNW) 10:28:53 145.935
PCSat 29 Apr 10:32:17 10:37:38 56° 55° (NE) 10:42:58 145.827
Oscar 11 29 Apr 10:33:28 10:37:13 29° 292° (WNW) 10:40:57 .
DUCHIFAT 1 29 Apr 10:43:11 10:45:58 18° 65° (ENE) 10:48:45 145.980
EO-79 29 Apr 10:44:13 10:47:26 22° 66° (ENE) 10:50:38 145.935-145.965
ISS 29 Apr 11:01:46 11:04:07 18° 2° (N) 11:06:28 437.550
OBJECT BX 29 Apr 11:16:20 11:19:39 32° 289° (WNW) 11:22:57 145.990 - 145.960
DELFI C3 29 Apr 11:18:50 11:22:14 27° 291° (WNW) 11:25:37 145.870
AIST 2D 29 Apr 11:22:27 11:25:54 75° 258° (WSW) 11:29:24 435.315
POLYITAN 1 29 Apr 11:23:18 11:27:24 56° 73° (ENE) 11:31:32 437.675
AO-85 29 Apr 11:26:11 11:29:50 28° 116° (ESE) 11:33:20 145.980
TIGRISAT 29 Apr 11:28:08 11:29:39 12° 270° (W) 11:31:09 435.000
QB50P2 29 Apr 11:29:59 11:34:11 73° 74° (ENE) 11:38:24 145.880/145.840
BUGSAT 1 29 Apr 11:32:52 11:35:50 19° 66° (ENE) 11:38:46 437.445
NANOSAT C BR1 29 Apr 11:48:54 11:53:06 83° 259° (W) 11:57:19 145.865
O/OREOS (USA 219) 29 Apr 11:49:47 11:51:39 12° 312° (NW) 11:53:31 437.305
Tancredo 1 29 Apr 11:54:08 11:56:42 23° 16° (NNE) 11:59:14 437.200
FO-29 29 Apr 11:55:00 11:57:58 14° 269° (W) 12:00:50 435.910
LO-87 29 Apr 12:10:08 12:13:37 53° 286° (WNW) 12:17:04 145.935 - 145.965
RS-15 29 Apr 12:14:36 12:24:31 26° 5° (N) 12:34:17 29.354- 29.394
PCSat 29 Apr 12:16:31 12:20:37 22° 253° (WSW) 12:24:42 145.827
DUCHIFAT 1 29 Apr 12:17:19 12:21:19 43° 261° (W) 12:25:20 145.980
EO-79 29 Apr 12:19:07 12:22:59 34° 263° (W) 12:26:51 145.935-145.965
ESTCUBE 1 29 Apr 12:23:25 12:28:00 90° 269° (W) 12:32:32 437.505/2401.250
VELOX 1 29 Apr 12:24:03 12:27:45 25° 95° (E) 12:31:25 145.980
50 SAT 29 Apr 12:26:08 12:27:38 12° 92° (E) 12:29:07 437.505
Oscar 19 29 Apr 12:30:11 12:34:42 32° 66° (ENE) 12:39:15 437.125/150
SO-50 29 Apr 12:37:14 12:38:58 12° 32° (NNE) 12:40:41 436.795
ISS 29 Apr 12:38:18 12:41:19 33° 22° (NNE) 12:44:18 437.550
Gurwin Techsat 1B 29 Apr 12:55:39 13:00:20 33° 66° (ENE) 13:05:02 435.225
POLYITAN 1 29 Apr 13:01:35 13:03:32 13° 269° (W) 13:05:29 437.675
SPROUT 29 Apr 13:03:25 13:07:38 66° 101° (E) 13:11:51 437.525
DX 1 29 Apr 13:06:01 13:09:43 27° 96° (E) 13:13:24 434.975-435.025
AO-7 29 Apr 13:06:05 13:11:00 18° 46° (NE) 13:15:56 .
AO-85 29 Apr 13:06:24 13:10:09 31° 312° (NW) 13:13:46 145.980
BUGSAT 1 29 Apr 13:07:06 13:10:56 37° 262° (W) 13:14:46 437.445
